FW0954 Weather Reports


time (UTC)temp
F
wind
direction
speed
knots
gust
knots
rain 1hr
in
rain 24hr
in
rain mn
in
humidity
%
barometer
mb
20260905201002 100 90 0.0 3.5 0.00 0.00 0.00 51 1012.0
20260905200501 100 66 0.0 2.6 0.00 0.00 0.00 51 1012.0
20260905200002 100 71 0.9 2.6 0.00 0.00 0.00 50 1012.1
20260905195502 100 81 0.9 2.6 0.00 0.00 0.00 50 1012.1
20260905195001 100 115 0.9 3.5 0.00 0.00 0.00 50 1012.1
20260905194503 100 115 0.9 4.3 0.00 0.00 0.00 50 1012.2
20260905194002 100 115 0.9 5.2 0.00 0.00 0.00 50 1012.3
20260905193002 100 71 0.9 3.5 0.00 0.00 0.00 49 1012.5
20260905192502 101 76 0.9 3.5 0.00 0.00 0.00 49 1012.6
20260905191502 100 121 0.9 3.5 0.00 0.00 0.00 50 1012.7
20260905191002 101 170 0.9 3.5 0.00 0.00 0.00 49 1013.0
20260905190502 100 184 0.9 3.5 0.00 0.00 0.00 51 1013.1
20260905190002 100 185 0.9 5.2 0.00 0.00 0.00 50 1013.2
20260905185502 100 183 0.9 5.2 0.00 0.00 0.00 50 1013.2
20260905185002 100 151 0.9 4.3 0.00 0.00 0.00 51 1013.5
20260905184502 100 131 0.0 4.3 0.00 0.00 0.00 51 1013.5
20260905183502 99 73 0.9 3.5 0.00 0.00 0.00 52 1013.7
20260905183002 99 86 0.9 3.5 0.00 0.00 0.00 52 1013.8
20260905182503 99 82 0.9 3.5 0.00 0.00 0.00 52 1013.9
20260905182002 98 100 0.9 5.2 0.00 0.00 0.00 53 1014.0
20260905181503 98 116 0.9 5.2 0.00 0.00 0.00 53 1014.0
20260905181003 98 130 0.9 4.3 0.00 0.00 0.00 53 1014.1
20260905180503 99 145 0.9 3.5 0.00 0.00 0.00 52 1014.2
20260905180003 98 120 0.9 3.5 0.00 0.00 0.00 54 1014.2
20260905175502 98 88 0.0 1.7 0.00 0.00 0.00 55 1014.3
20260905175002 98 107 0.9 3.5 0.00 0.00 0.00 55 1014.4
20260905174003 97 73 0.9 3.5 0.00 0.00 0.00 56 1014.5
20260905173503 96 77 0.9 3.5 0.00 0.00 0.00 56 1014.5
20260905173003 96 92 0.9 3.5 0.00 0.00 0.00 57 1014.5
20260905172503 95 119 0.9 3.5 0.00 0.00 0.00 59 1014.6
20260905172002 95 122 0.9 3.5 0.00 0.00 0.00 58 1014.8
20260905171503 96 116 0.9 3.5 0.00 0.00 0.00 58 1014.7
20260905171003 96 109 0.0 2.6 0.00 0.00 0.00 59 1014.7
20260905170503 95 96 0.0 1.7 0.00 0.00 0.00 60 1014.8
20260905170003 95 101 0.9 2.6 0.00 0.00 0.00 60 1014.8
20260905165502 95 101 0.0 2.6 0.00 0.00 0.00 61 1014.8
20260905165002 94 90 0.0 1.7 0.00 0.00 0.00 62 1014.8
20260905164502 94 71 0.0 1.7 0.00 0.00 0.00 62 1014.9
20260905163503 94 114 0.0 3.5 0.00 0.00 0.00 63 1015.0
20260905163002 93 85 0.0 3.5 0.00 0.00 0.00 64 1015.0
20260905162502 93 114 0.9 3.5 0.00 0.00 0.00 64 1015.1
20260905162003 93 125 0.9 4.3 0.00 0.00 0.00 64 1015.0
20260905161502 93 130 0.9 4.3 0.00 0.00 0.00 65 1015.0
20260905161003 93 127 0.9 3.5 0.00 0.00 0.00 64 1014.9
20260905160503 93 124 0.0 3.5 0.00 0.00 0.00 66 1015.0
20260905160003 92 139 0.0 0.9 0.00 0.00 0.00 67 1015.0
20260905155003 92 110 0.0 1.7 0.00 0.00 0.00 67 1015.0
20260905154503 92 259 0.0 1.7 0.00 0.00 0.00 69 1015.0
20260905154003 91 267 0.9 2.6 0.00 0.00 0.00 66 1015.2
20260905153002 91 242 0.0 2.6 0.00 0.00 0.00 68 1014.9
20260905152502 90 275 0.0 3.5 0.00 0.00 0.00 68 1015.0
20260905152003 90 270 0.9 3.5 0.00 0.00 0.00 69 1014.9
20260905151502 90 266 0.9 3.5 0.00 0.00 0.00 69 1014.9
20260905151002 89 280 0.9 4.3 0.00 0.00 0.00 70 1014.8
20260905150503 88 286 0.9 4.3 0.00 0.00 0.00 71 1014.7
20260905150003 88 281 0.9 4.3 0.00 0.00 0.00 72 1014.8
20260905145502 88 280 0.9 3.5 0.00 0.00 0.00 72 1014.8
20260905145002 88 282 0.0 2.6 0.00 0.00 0.00 72 1014.7
20260905144502 87 273 0.0 2.6 0.00 0.00 0.00 74 1014.7
20260905144002 86 270 0.9 2.6 0.00 0.00 0.00 75 1014.7
20260905143503 86 276 0.9 2.6 0.00 0.00 0.00 75 1014.7
20260905143003 86 280 0.9 2.6 0.00 0.00 0.00 75 1014.7
20260905142503 85 288 0.0 2.6 0.00 0.00 0.00 76 1014.8
20260905142003 85 288 0.0 2.6 0.00 0.00 0.00 75 1014.9
20260905141503 86 256 0.0 2.6 0.00 0.00 0.00 75 1014.7
20260905141003 85 216 0.0 1.7 0.00 0.00 0.00 76 1014.8
20260905140004 84 196 0.0 0.9 0.00 0.00 0.00 77 1014.8
20260905135502 83 193 0.0 0.9 0.00 0.00 0.00 79 1014.8
20260905135002 83 197 0.0 1.7 0.00 0.00 0.00 79 1014.7
20260905134503 82 201 0.0 1.7 0.00 0.00 0.00 80 1014.7
20260905134003 82 0 0.0 0.0 0.00 0.00 0.00 81 1014.7
20260905133502 80 0 0.0 0.0 0.00 0.00 0.00 83 1014.6
20260905133002 80 0 0.0 0.0 0.00 0.00 0.00 84 1014.5
20260905132502 79 203 0.0 0.9 0.00 0.00 0.00 85 1014.4
20260905131503 78 204 0.0 1.7 0.00 0.00 0.00 85 1014.4
20260905131003 78 203 0.0 1.7 0.00 0.00 0.00 86 1014.4
20260905130503 78 197 0.0 1.7 0.00 0.00 0.00 86 1014.3
20260905130003 77 195 0.0 2.6 0.00 0.00 0.00 86 1014.2
20260905125503 77 187 0.9 2.6 0.00 0.00 0.00 87 1014.2
20260905125003 77 183 0.9 2.6 0.00 0.00 0.00 87 1014.0
20260905124503 76 196 0.0 2.6 0.00 0.00 0.00 88 1014.0
20260905124002 76 209 0.0 1.7 0.00 0.00 0.00 88 1014.1
20260905123503 76 0 0.0 0.0 0.00 0.00 0.00 88 1014.1
20260905122503 76 0 0.0 0.0 0.00 0.00 0.00 88 1014.1
20260905122002 76 0 0.0 0.0 0.00 0.00 0.00 88 1014.1
20260905121503 76 0 0.0 0.0 0.00 0.00 0.00 88 1014.1
20260905121003 76 0 0.0 0.0 0.00 0.00 0.00 88 1014.1
20260905120003 76 0 0.0 0.0 0.00 0.00 0.00 87 1014.1
20260905115503 76 0 0.0 0.0 0.00 0.00 0.00 88 1014.0
20260905115003 76 0 0.0 0.0 0.00 0.00 0.00 87 1014.0
20260905114503 76 0 0.0 0.0 0.00 0.00 0.00 87 1014.1
20260905114002 76 0 0.0 0.0 0.00 0.00 0.00 87 1014.0
20260905113503 76 0 0.0 0.0 0.00 0.00 0.00 88 1014.0
20260905113003 76 0 0.0 0.0 0.00 0.00 0.00 88 1014.0
20260905112003 76 0 0.0 0.0 0.00 0.00 0.00 88 1014.1
20260905111503 76 0 0.0 0.0 0.00 0.00 0.00 88 1014.0
20260905111003 76 0 0.0 0.0 0.00 0.00 0.00 88 1013.9
20260905110503 76 0 0.0 0.0 0.00 0.00 0.00 87 1014.0
20260905110003 76 0 0.0 0.0 0.00 0.00 0.00 87 1014.0
20260905105502 76 0 0.0 0.0 0.00 0.00 0.00 87 1013.9
20260905105003 76 0 0.0 0.0 0.00 0.00 0.00 87 1013.9
20260905104503 76 0 0.0 0.0 0.00 0.00 0.00 87 1013.8
20260905104003 76 0 0.0 0.0 0.00 0.00 0.00 87 1013.8
20260905103003 77 0 0.0 0.0 0.00 0.00 0.00 87 1013.8
20260905102503 77 0 0.0 0.0 0.00 0.00 0.00 87 1013.8
20260905102003 77 0 0.0 0.0 0.00 0.00 0.00 87 1013.8
20260905101003 77 0 0.0 0.0 0.00 0.00 0.00 87 1013.9
20260905100502 77 0 0.0 0.0 0.00 0.00 0.00 86 1013.8
20260905100003 77 0 0.0 0.0 0.00 0.00 0.00 86 1013.8
20260905095002 77 0 0.0 0.0 0.00 0.00 0.00 86 1013.7
20260905094503 77 0 0.0 0.0 0.00 0.00 0.00 86 1013.8
20260905094003 77 0 0.0 0.0 0.00 0.00 0.00 86 1013.8
20260905093003 77 0 0.0 0.0 0.00 0.00 0.00 85 1013.7
20260905092503 78 0 0.0 0.0 0.00 0.00 0.00 85 1013.7
20260905092003 78 0 0.0 0.0 0.00 0.00 0.00 84 1013.7
20260905091503 78 0 0.0 0.0 0.00 0.00 0.00 84 1013.6
20260905091003 78 0 0.0 0.0 0.00 0.00 0.00 84 1013.6
20260905090503 78 0 0.0 0.0 0.00 0.00 0.00 83 1013.7
20260905085503 78 0 0.0 0.0 0.00 0.00 0.00 83 1013.6
20260905084503 79 0 0.0 0.0 0.00 0.00 0.00 82 1013.4
20260905084003 79 0 0.0 0.0 0.00 0.00 0.00 82 1013.4
20260905083503 79 0 0.0 0.0 0.00 0.00 0.00 82 1013.2
20260905083003 79 0 0.0 0.0 0.00 0.00 0.00 81 1013.2
20260905082503 79 0 0.0 0.0 0.00 0.00 0.00 81 1013.1
20260905082003 79 0 0.0 0.0 0.00 0.00 0.00 80 1013.1
20260905081503 80 0 0.0 0.0 0.00 0.00 0.00 80 1013.1
20260905081003 80 210 0.0 0.9 0.00 0.00 0.00 80 1013.1
20260905080503 80 210 0.0 0.9 0.00 0.00 0.00 81 1013.1
20260905080004 80 0 0.0 0.0 0.00 0.00 0.00 80 1013.1
20260905075004 80 0 0.0 0.0 0.00 0.00 0.00 80 1013.3
20260905074504 80 0 0.0 0.0 0.00 0.00 0.00 80 1013.2
20260905074004 80 209 0.0 0.9 0.00 0.00 0.00 80 1013.4
20260905073503 80 209 0.0 0.9 0.00 0.00 0.00 79 1013.5
20260905073003 81 0 0.0 0.0 0.00 0.00 0.00 79 1013.6
20260905072504 81 0 0.0 0.0 0.00 0.00 0.00 79 1013.7
20260905072004 81 0 0.0 0.0 0.00 0.00 0.00 79 1013.7
20260905071504 81 0 0.0 0.0 0.00 0.00 0.00 79 1013.8
20260905071003 81 0 0.0 0.0 0.00 0.00 0.00 78 1013.8
20260905070003 81 0 0.0 0.0 0.00 0.00 0.00 78 1013.8
20260905065503 81 0 0.0 0.0 0.00 0.00 0.00 77 1013.9
20260905065003 82 0 0.0 0.0 0.00 0.00 0.00 77 1013.9
20260905063003 83 0 0.0 0.0 0.00 0.00 0.00 75 1013.9
20260905062504 83 0 0.0 0.0 0.00 0.00 0.00 74 1014.0
20260905062004 83 0 0.0 0.0 0.00 0.00 0.00 74 1013.9
20260905061504 83 0 0.0 0.0 0.00 0.00 0.00 74 1013.9
20260905061004 84 0 0.0 0.0 0.00 0.00 0.00 74 1013.9
20260905060504 84 209 0.0 1.7 0.00 0.00 0.00 73 1013.8
20260905060001 84 209 0.0 1.7 0.00 0.00 0.00 73 1013.8
20260905055001 84 209 0.0 0.9 0.00 0.00 0.00 73 1013.7
20260905054501 84 202 0.0 1.7 0.00 0.00 0.00 72 1013.6
20260905054001 84 200 0.0 2.6 0.00 0.00 0.00 72 1013.4
20260905053501 84 201 0.0 2.6 0.00 0.00 0.00 72 1013.5
20260905053002 85 203 0.0 1.7 0.00 0.00 0.00 72 1013.4
20260905052501 85 194 0.9 1.7 0.00 0.00 0.00 72 1013.4
20260905052001 85 179 0.0 1.7 0.00 0.00 0.00 72 1013.4
20260905051501 85 189 0.0 2.6 0.00 0.00 0.00 71 1013.3
20260905051002 85 203 0.0 2.6 0.00 0.00 0.00 71 1013.3
20260905050502 85 206 0.9 2.6 0.00 0.00 0.00 71 1013.3
20260905050002 85 204 0.9 2.6 0.00 0.00 0.00 71 1013.2
20260905045501 85 199 0.9 3.5 0.00 0.00 0.00 71 1013.3
20260905045001 85 189 0.0 3.5 0.00 0.00 0.00 71 1013.3
20260905044503 86 182 0.0 2.6 0.00 0.00 0.00 70 1013.4
20260905044002 86 177 0.0 2.6 0.00 0.00 0.00 70 1013.4
20260905043001 86 181 0.9 3.5 0.00 0.00 0.00 70 1013.3
20260905042501 86 183 0.9 3.5 0.00 0.00 0.00 69 1013.4
20260905042001 86 179 0.0 2.6 0.00 0.00 0.00 69 1013.4
20260905041502 86 183 0.9 2.6 0.00 0.00 0.00 69 1013.5
20260905040501 86 184 0.9 3.5 0.00 0.00 0.00 68 1013.5
20260905040001 86 190 0.9 3.5 0.00 0.00 0.00 68 1013.5
20260905035501 86 188 0.0 2.6 0.00 0.00 0.00 68 1013.5
20260905035002 86 173 0.0 1.7 0.00 0.00 0.00 67 1013.6
20260905034501 86 172 0.0 1.7 0.00 0.00 0.00 67 1013.5
20260905033501 86 165 0.0 1.7 0.00 0.00 0.00 66 1013.5
20260905033002 87 174 0.9 2.6 0.00 0.00 0.00 66 1013.5
20260905032502 87 182 0.9 2.6 0.00 0.00 0.00 65 1013.5
20260905032001 87 183 0.0 1.7 0.00 0.00 0.00 65 1013.4
20260905031501 87 177 0.0 1.7 0.00 0.00 0.00 65 1013.5
20260905031001 88 172 0.0 1.7 0.00 0.00 0.00 64 1013.4
20260905030501 88 170 0.0 0.9 0.00 0.00 0.00 64 1013.4
20260905025501 88 171 0.9 2.6 0.00 0.00 0.00 63 1013.3
20260905025002 88 170 0.9 2.6 0.00 0.00 0.00 63 1013.2
20260905024501 88 173 0.9 2.6 0.00 0.00 0.00 63 1013.2
20260905024002 89 173 0.0 2.6 0.00 0.00 0.00 62 1013.0
20260905023501 89 168 0.9 2.6 0.00 0.00 0.00 62 1013.0
20260905023002 89 165 0.9 2.6 0.00 0.00 0.00 62 1012.9
20260905022501 89 166 0.0 2.6 0.00 0.00 0.00 63 1012.8
20260905022002 89 164 0.0 1.7 0.00 0.00 0.00 62 1012.7
20260905021502 89 162 0.0 1.7 0.00 0.00 0.00 62 1012.5
20260905021001 90 168 0.0 1.7 0.00 0.00 0.00 61 1012.5
20260905020502 90 166 0.9 2.6 0.00 0.00 0.00 61 1012.5
20260905020001 90 168 0.9 2.6 0.00 0.00 0.00 61 1012.3
20260905015502 90 166 0.9 2.6 0.00 0.00 0.00 60 1012.2
20260905015001 90 164 0.9 2.6 0.00 0.00 0.00 60 1012.2
20260905014502 90 165 0.9 2.6 0.00 0.00 0.00 60 1012.1
20260905014001 90 163 0.9 2.6 0.00 0.00 0.00 60 1012.1
20260905013501 91 162 0.9 2.6 0.00 0.00 0.00 60 1012.0
20260905013001 91 165 0.9 2.6 0.00 0.00 0.00 59 1012.0
20260905012501 91 168 0.9 4.3 0.00 0.00 0.00 59 1011.9
20260905011501 91 166 0.9 3.5 0.00 0.00 0.00 58 1011.9
20260905010501 92 162 0.9 3.5 0.00 0.00 0.00 59 1011.8
20260905010002 92 162 0.9 4.3 0.00 0.00 0.00 58 1011.8
20260905005502 92 161 0.9 4.3 0.00 0.00 0.00 57 1011.8
20260905005002 92 153 0.9 4.3 0.00 0.00 0.00 57 1011.6
20260905003502 94 156 0.9 3.5 0.00 0.00 0.00 56 1011.5
20260905003002 94 155 0.9 4.3 0.00 0.00 0.00 55 1011.6
20260905002502 94 159 0.9 4.3 0.00 0.00 0.00 55 1011.5
20260905002002 95 157 0.9 5.2 0.00 0.00 0.00 53 1011.4
20260905001502 96 156 0.9 5.2 0.00 0.00 0.00 53 1011.3
20260905001002 96 152 0.9 3.5 0.00 0.00 0.00 53 1011.5
20260905000501 97 154 0.9 5.2 0.00 0.00 0.00 53 1011.5
20260905000002 97 161 0.9 5.2 0.00 0.00 0.00 53 1011.4
20260904235502 97 157 1.7 4.3 0.00 0.00 0.00 51 1011.4
20260904235001 97 155 0.9 5.2 0.00 0.00 0.00 52 1011.4
20260904234502 98 156 0.9 5.2 0.00 0.00 0.00 51 1011.4
20260904233002 98 151 0.9 4.3 0.00 0.00 0.00 51 1011.2
20260904232502 97 154 0.9 5.2 0.00 0.00 0.00 52 1011.2
20260904232002 97 155 1.7 5.2 0.00 0.00 0.00 52 1011.2
20260904231501 97 151 0.9 5.2 0.00 0.00 0.00 53 1011.3
20260904231001 97 149 0.0 3.5 0.00 0.00 0.00 52 1011.3
20260904230501 98 136 0.9 5.2 0.00 0.00 0.00 52 1011.3
20260904230002 98 148 1.7 5.2 0.00 0.00 0.00 52 1011.3
20260904225502 98 160 1.7 5.2 0.00 0.00 0.00 52 1011.2
20260904225002 98 157 0.9 5.2 0.00 0.00 0.00 51 1011.4
20260904224501 97 154 0.9 5.2 0.00 0.00 0.00 52 1011.5
20260904224001 97 154 1.7 6.1 0.00 0.00 0.00 52 1011.4
20260904223501 98 147 1.7 6.1 0.00 0.00 0.00 52 1011.4
20260904223002 98 143 0.9 5.2 0.00 0.00 0.00 52 1011.4
20260904222002 99 151 1.7 6.1 0.00 0.00 0.00 49 1011.4
20260904221502 99 154 1.7 6.1 0.00 0.00 0.00 50 1011.4
20260904221002 100 145 1.7 5.2 0.00 0.00 0.00 50 1011.4
20260904220502 99 108 1.7 7.0 0.00 0.00 0.00 51 1011.4
20260904220002 99 90 1.7 7.0 0.00 0.00 0.00 51 1011.5
20260904215502 99 105 0.9 4.3 0.00 0.00 0.00 52 1011.5
20260904215002 99 134 0.9 4.3 0.00 0.00 0.00 53 1011.6
20260904214502 100 137 1.7 5.2 0.00 0.00 0.00 51 1011.7
20260904214002 100 130 0.9 5.2 0.00 0.00 0.00 51 1011.6
20260904213502 100 99 0.9 3.5 0.00 0.00 0.00 52 1011.7
20260904212501 100 141 1.7 5.2 0.00 0.00 0.00 51 1011.8
20260904212001 100 120 1.7 5.2 0.00 0.00 0.00 51 1011.9
20260904211502 100 137 1.7 5.2 0.00 0.00 0.00 51 1011.9
20260904211002 99 159 1.7 7.0 0.00 0.00 0.00 51 1011.9
20260904210502 99 142 2.6 7.0 0.00 0.00 0.00 51 1012.0
20260904205501 101 156 1.7 7.0 0.00 0.00 0.00 49 1012.2
20260904205002 101 162 1.7 7.0 0.00 0.00 0.00 49 1012.1
20260904204502 101 156 1.7 5.2 0.00 0.00 0.00 49 1012.2
20260904204002 100 158 1.7 7.0 0.00 0.00 0.00 49 1012.2
20260904203002 100 187 1.7 7.0 0.00 0.00 0.00 48 1012.4